Weather History for Hettinger, ND

Change the Weather History Date:

Saturday, March 9, 2013

  Actual Average Record
Temperature  
Mean Temperature 28 °F -  
Max Temperature 37 °F 38 °F 70 °F (2012)
Min Temperature 18 °F 16 °F -18 °F (2002)
Degree Days  
Heating Degree Days 37 38  
Month to date heating degree days 319 354  
Since 1 July heating degree days 6277 6670  
Cooling Degree Days 0 0  
Month to date cooling degree days 0 0  
Year to date cooling degree days 0 0  
Moisture  
Dew Point 23 °F    
Average Humidity 82    
Maximum Humidity 92    
Minimum Humidity 54    
Precipitation  
Precipitation 0.00 in 0.02 in 0.01 in (2006)
Month to date precipitation 0.19 0.15  
Year to date precipitation 0.32 0.88  
Sea Level Pressure  
Sea Level Pressure 30.00 in    
Wind  
Wind Speed 13 mph (NNW)    
Max Wind Speed 17 mph    
Max Gust Speed 23 mph    
Visibility 7 miles    
Events      
T = Trace of Precipitation, MM = Missing Value Source: NWS Daily Summary

Daily Weather History Graph

Daily Weather History Graph

Search for Another Location

Airport:

Trip Planner

Search our weather history database for the weather conditions in past years. The results will help you decide how hot, cold, wet, or windy it might be!

Date:

Astronomy

Mar. 09, 2013 Rise Set
Actual Time 6:14 AM MST 5:48 PM MST
Civil Twilight 5:44 AM MST 6:18 PM MST
Nautical Twilight 5:09 AM MST 6:53 PM MST
Astronomical Twilight 4:34 AM MST 7:28 PM MST
Moon 4:45 AM MST (3/9) 3:49 PM MST (3/9)
Length of Visible Light 12h 34m
Length of Day
11h 34m
Waning Crescent, 5% of the Moon is Illuminated
Mar 9
Waning Crescent
Mar 11
New
Mar 19
First Quarter
Mar 27
Full
Apr 2
Last Quarter

Hourly Weather History & Observations

Time (MST) Temp. Windchill Dew Point Humidity Pressure Visibility Wind Dir Wind Speed Gust Speed Precip Events Conditions
12:53 AM 27.0 °F - 25.0 °F 92% 29.95 in 3.0 mi Calm Calm - N/A   Overcast
1:28 AM 26.6 °F 22.6 °F 24.8 °F 93% 29.86 in 2.5 mi NNW 3.5 mph - N/A   Overcast
1:53 AM 27.0 °F - 25.0 °F 92% 29.93 in 2.5 mi Calm Calm - N/A   Overcast
2:20 AM 26.6 °F - 24.8 °F 93% 29.84 in 1.8 mi Calm Calm - N/A   Overcast
2:32 AM 26.6 °F 22.6 °F 24.8 °F 93% 29.84 in 2.0 mi Variable 3.5 mph - N/A   Overcast
2:53 AM 27.0 °F 18.7 °F 25.0 °F 92% 29.92 in 2.5 mi NNW 8.1 mph - N/A   Overcast
3:00 AM 26.6 °F 18.2 °F 24.8 °F 93% 29.84 in 3.0 mi NW 8.1 mph - N/A   Overcast
3:53 AM 26.1 °F 17.6 °F 24.1 °F 92% 29.92 in 3.0 mi NNW 8.1 mph - N/A   Overcast
4:53 AM 27.0 °F 18.7 °F 25.0 °F 92% 29.93 in 3.0 mi NW 8.1 mph - N/A   Overcast
5:53 AM 28.0 °F 18.6 °F 25.0 °F 88% 29.92 in 4.0 mi NW 10.4 mph - N/A   Overcast
6:53 AM 28.9 °F 21.1 °F 26.1 °F 89% 29.94 in 3.0 mi NW 8.1 mph - N/A   Overcast
7:53 AM 28.9 °F 21.9 °F 26.1 °F 89% 29.97 in 4.0 mi NNW 6.9 mph - N/A   Overcast
8:53 AM 30.0 °F 21.7 °F 26.1 °F 85% 29.96 in 4.0 mi NNW 9.2 mph - N/A   Overcast
9:53 AM 32.0 °F 21.2 °F 28.0 °F 85% 29.96 in 4.0 mi NW 16.1 mph 26.5 mph N/A   Overcast
10:53 AM 33.1 °F 20.6 °F 28.0 °F 82% 29.96 in 9.0 mi NNW 23.0 mph 29.9 mph N/A   Overcast
11:53 AM 32.0 °F 19.8 °F 28.0 °F 85% 29.98 in 9.0 mi NW 20.7 mph 26.5 mph N/A   Overcast
12:23 PM 32.0 °F 19.8 °F 26.6 °F 80% 29.89 in 10.0 mi NW 20.7 mph 27.6 mph N/A   Overcast
12:53 PM 30.9 °F 17.5 °F 26.1 °F 82% 29.98 in 10.0 mi NW 24.2 mph 31.1 mph N/A   Overcast
1:53 PM 35.1 °F 23.3 °F 25.0 °F 67% 29.97 in 10.0 mi NNW 23.0 mph 32.2 mph N/A   Mostly Cloudy
2:44 PM 35.6 °F 24.0 °F 24.8 °F 65% 29.91 in 10.0 mi NNW 23.0 mph 36.8 mph N/A   Partly Cloudy
2:53 PM 37.0 °F 25.6 °F 23.0 °F 57% 29.99 in 10.0 mi North 24.2 mph 31.1 mph N/A   Partly Cloudy
3:53 PM 36.0 °F 24.4 °F 21.0 °F 55% 30.04 in 10.0 mi NNW 23.0 mph 33.4 mph N/A   Clear
4:53 PM 32.0 °F 20.1 °F 21.0 °F 64% 30.07 in 10.0 mi NNW 19.6 mph 31.1 mph N/A   Clear
5:53 PM 27.0 °F 16.1 °F 19.9 °F 75% 30.12 in 10.0 mi NNW 12.7 mph 21.9 mph N/A   Clear
6:53 PM 24.1 °F 13.7 °F 18.0 °F 77% 30.15 in 10.0 mi NW 10.4 mph - N/A   Clear
7:53 PM 24.1 °F 12.0 °F 18.0 °F 77% 30.18 in 10.0 mi NW 13.8 mph - N/A   Clear
8:53 PM 21.9 °F 10.4 °F 17.1 °F 82% 30.22 in 10.0 mi NNW 11.5 mph - N/A   Clear
9:53 PM 21.0 °F 8.1 °F 16.0 °F 81% 30.23 in 9.0 mi NNW 13.8 mph - N/A   Clear
10:53 PM 19.0 °F 6.8 °F 15.1 °F 85% 30.24 in 9.0 mi NNW 11.5 mph - N/A   Clear
11:53 PM 18.0 °F 4.8 °F 12.9 °F 81% 30.26 in 10.0 mi NNW 12.7 mph - N/A   Clear